EW4606 Weather Reports


time (UTC)temp
F
wind
direction
speed
knots
gust
knots
rain 1hr
in
rain 24hr
in
rain mn
in
humidity
%
barometer
mb
20260507023026 79 243 0.0 0.0 0.00 0.00 0.00 24 1009.9
20260507021543 56 360 0.0 0.0 0.00 0.00 0.00 24 1017.1
20260507021533 80 242 0.0 0.0 0.00 0.00 0.00 23 1009.8
20260507020026 57 360 0.0 0.0 0.00 0.00 0.00 24 1017.1
20260507014524 58 360 0.0 0.0 0.00 0.00 0.00 23 1016.9
20260507013023 83 272 0.0 0.0 0.00 0.00 0.00 21 1009.6
20260507013020 59 360 0.0 0.0 0.00 0.00 0.00 22 1016.9
20260507011527 59 360 0.0 0.0 0.00 0.00 0.00 22 1016.7
20260507011524 84 205 0.0 0.0 0.00 0.00 0.00 20 1009.5
20260507010030 83 251 0.0 0.0 0.00 0.00 0.00 20 1009.4
20260507004520 84 261 0.0 0.0 0.00 0.00 0.00 19 1009.5
20260507003019 84 264 0.0 0.0 0.00 0.00 0.00 19 1009.5
20260507003013 61 360 0.0 0.0 0.00 0.00 0.00 23 1016.3
20260507001518 84 291 0.0 0.0 0.00 0.00 0.00 18 1009.4
20260507001513 61 360 0.0 0.0 0.00 0.00 0.00 22 1016.1
20260507000023 85 280 0.0 0.0 0.00 0.00 0.00 18 1009.5
20260507000012 61 360 0.0 0.0 0.00 0.00 0.00 22 1015.9
20260506234516 85 244 0.0 0.0 0.00 0.00 0.00 18 1009.5
20260506234512 61 360 0.0 0.0 0.00 0.00 0.00 22 1015.8
20260506233014 84 221 0.0 0.0 0.00 0.00 0.00 19 1009.6
20260506233012 62 360 0.0 0.0 0.00 0.00 0.00 23 1015.7
20260506231516 84 283 0.0 0.0 0.00 0.00 0.00 19 1009.8
20260506231511 62 360 0.0 0.0 0.00 0.00 0.00 22 1015.6
20260506230012 62 360 0.0 0.0 0.00 0.00 0.00 22 1015.7
20260506230010 83 257 0.0 0.0 0.00 0.00 0.00 19 1009.9
20260506224510 62 360 0.0 0.0 0.00 0.00 0.00 22 1015.7
20260506224507 84 94 0.0 0.0 0.00 0.00 0.00 18 1010.1
20260506223015 62 360 0.0 0.0 0.00 0.00 0.00 22 1015.9
20260506223005 82 351 0.0 0.0 0.00 0.00 0.00 19 1010.3
20260506221508 62 360 0.0 0.0 0.00 0.00 0.00 22 1015.8
20260506221504 84 225 0.0 0.0 0.00 0.00 0.00 18 1010.7
20260506220101 83 84 0.0 0.0 0.00 0.00 0.00 19 1010.9
20260506220014 61 360 0.0 0.0 0.00 0.00 0.00 20 1015.9
20260506214601 83 320 0.0 0.0 0.00 0.00 0.00 19 1011.1
20260506214508 61 360 0.0 0.0 0.00 0.00 0.00 21 1016.1
20260506213059 84 208 0.0 0.0 0.00 0.00 0.00 19 1011.4
20260506213004 60 360 0.0 0.0 0.00 0.00 0.00 20 1016.2
20260506211555 83 77 0.0 0.0 0.00 0.00 0.00 20 1011.6
20260506211502 61 360 0.0 0.0 0.00 0.00 0.00 23 1016.2
20260506210049 81 79 0.0 0.0 0.00 0.00 0.00 21 1011.9
20260506210001 61 360 0.0 0.0 0.00 0.00 0.00 24 1016.0
20260506204548 81 30 0.0 0.0 0.00 0.00 0.00 21 1012.0
20260506204501 60 360 0.0 0.0 0.00 0.00 0.00 26 1016.1
20260506203059 59 360 0.0 0.0 0.00 0.00 0.00 26 1016.0
20260506203046 81 88 0.0 0.0 0.00 0.00 0.00 21 1012.2
20260506201600 59 360 0.0 0.0 0.00 0.00 0.00 29 1016.1
20260506201544 80 331 0.0 0.0 0.00 0.00 0.00 22 1012.3
20260506200110 59 360 0.0 0.0 0.00 0.00 0.00 29 1015.8
20260506200044 78 140 0.0 0.0 0.00 0.00 0.00 24 1012.6
20260506194614 59 360 0.0 0.0 0.00 0.00 0.00 30 1015.8
20260506194543 78 79 0.0 0.0 0.00 0.00 0.00 23 1012.7
20260506193052 56 360 0.0 0.0 0.00 0.00 0.00 35 1015.9
20260506193048 78 355 0.0 0.0 0.00 0.00 0.00 25 1012.9
20260506191550 56 360 0.0 0.0 0.00 0.00 0.00 40 1015.8
20260506191538 77 205 0.0 0.0 0.00 0.00 0.00 28 1013.1
20260506190050 57 360 0.0 0.0 0.00 0.00 0.00 40 1015.9
20260506190035 78 250 0.0 0.0 0.00 0.00 0.00 29 1013.2
20260506184549 57 360 0.0 0.0 0.00 0.00 0.00 40 1016.0
20260506184537 76 69 0.0 0.0 0.00 0.00 0.00 30 1013.4
20260506183101 57 360 0.0 0.0 0.00 0.00 0.00 39 1015.9
20260506183032 75 277 0.0 0.0 0.00 0.00 0.00 31 1013.5
20260506181553 56 360 0.0 0.0 0.00 0.00 0.00 41 1015.7
20260506181541 75 257 0.0 0.0 0.00 0.00 0.00 32 1013.7
20260506180045 57 360 0.0 0.0 0.00 0.00 0.00 44 1015.7
20260506180030 76 42 0.0 0.0 0.00 0.00 0.00 32 1013.9
20260506174541 56 360 0.0 0.0 0.00 0.00 0.00 47 1015.4
20260506174533 75 56 0.0 0.0 0.00 0.00 0.00 32 1014.0
20260506173046 74 208 0.0 0.0 0.00 0.00 0.00 35 1014.0
20260506173037 55 360 0.0 0.0 0.00 0.00 0.00 50 1015.3
20260506171541 54 360 0.0 0.0 0.00 0.00 0.00 52 1015.2
20260506171521 72 234 0.0 0.0 0.00 0.00 0.00 37 1014.0
20260506170035 53 360 0.0 0.0 0.00 0.00 0.00 59 1015.0
20260506170020 69 348 0.0 0.0 0.00 0.00 0.00 40 1014.0
20260506164531 51 360 0.0 0.0 0.00 0.00 0.00 65 1014.8
20260506164517 70 248 0.0 0.0 0.00 0.00 0.00 40 1013.9
20260506163030 50 360 0.0 0.0 0.00 0.00 0.00 65 1014.7
20260506163017 69 258 0.0 0.0 0.00 0.00 0.00 40 1013.9
20260506161536 52 360 0.0 0.0 0.00 0.00 0.00 62 1014.5
20260506161513 68 323 0.0 0.0 0.00 0.00 0.00 41 1013.7
20260506160035 53 360 0.0 0.0 0.00 0.00 0.00 61 1014.2
20260506160010 67 248 0.0 0.0 0.00 0.00 0.00 41 1013.6
20260506154521 53 360 0.0 0.0 0.00 0.00 0.00 61 1013.9
20260506154505 65 309 0.0 0.0 0.00 0.00 0.00 44 1013.7
20260506153018 52 360 0.0 0.0 0.00 0.00 0.00 61 1013.9
20260506153002 64 345 0.0 0.0 0.00 0.00 0.00 44 1013.7
20260506151522 50 360 0.0 0.0 0.00 0.00 0.00 64 1013.7
20260506151506 64 281 0.0 0.0 0.00 0.00 0.00 44 1013.7
20260506150100 64 327 0.0 0.0 0.00 0.00 0.00 43 1013.5
20260506150022 48 360 0.0 0.0 0.00 0.00 0.00 63 1013.7
20260506144604 63 223 0.0 0.0 0.00 0.00 0.00 45 1013.4
20260506144511 47 360 0.0 0.0 0.00 0.00 0.00 62 1013.5
20260506143054 62 154 0.0 0.0 0.00 0.00 0.00 46 1013.2
20260506143032 45 360 0.0 0.0 0.00 0.00 0.00 65 1013.6
20260506141555 61 153 0.0 0.0 0.00 0.00 0.00 47 1013.2
20260506141509 44 360 0.0 0.0 0.00 0.00 0.00 69 1013.5
20260506140049 60 153 0.0 0.0 0.00 0.00 0.00 49 1013.1
20260506140010 43 360 0.0 0.0 0.00 0.00 0.00 69 1013.5
20260506134545 58 153 0.0 0.0 0.00 0.00 0.00 51 1013.0
20260506134505 42 360 0.0 0.0 0.00 0.00 0.00 70 1013.3
20260506133056 55 153 0.0 0.0 0.00 0.00 0.00 54 1012.9
20260506133004 41 360 0.0 0.0 0.00 0.00 0.00 70 1013.0
20260506131602 40 360 0.0 0.0 0.00 0.00 0.00 69 1012.8
20260506131541 54 153 0.0 0.0 0.00 0.00 0.00 54 1012.7
20260506130128 40 360 0.0 0.0 0.00 0.00 0.00 68 1012.6
20260506130040 55 153 0.0 0.0 0.00 0.00 0.00 54 1012.6
20260506124555 40 360 0.0 0.0 0.00 0.00 0.00 66 1012.3
20260506124537 55 153 0.0 0.0 0.00 0.00 0.00 54 1012.4
20260506123053 41 360 0.0 0.0 0.00 0.00 0.00 65 1011.8
20260506123036 55 153 0.0 0.0 0.00 0.00 0.00 54 1012.3
20260506121552 42 360 0.0 0.0 0.00 0.00 0.00 64 1011.5
20260506121534 55 153 0.0 0.0 0.00 0.00 0.00 54 1012.2
20260506120051 42 360 0.0 0.0 0.00 0.00 0.00 64 1011.2
20260506120033 55 180 0.0 0.0 0.00 0.00 0.00 52 1012.2
20260506114551 42 360 0.0 0.0 0.00 0.00 0.00 65 1011.1
20260506114536 55 180 0.0 0.0 0.00 0.00 0.00 51 1012.1
20260506113054 43 360 0.0 0.0 0.00 0.00 0.00 64 1011.4
20260506113028 55 180 0.0 0.0 0.00 0.00 0.00 51 1012.0
20260506111551 46 360 0.0 0.0 0.00 0.00 0.00 66 1011.7
20260506111525 56 181 0.0 0.0 0.00 0.00 0.00 51 1011.9
20260506110058 46 360 0.0 0.0 0.00 0.00 0.00 66 1011.8
20260506110026 56 201 0.0 0.0 0.00 0.00 0.00 51 1011.8
20260506104551 46 360 0.0 0.0 0.00 0.00 0.00 60 1011.9
20260506104543 57 201 0.0 0.0 0.00 0.00 0.00 50 1011.7
20260506103120 57 264 0.0 0.0 0.00 0.00 0.00 50 1011.7
20260506103048 44 360 0.0 0.0 0.00 0.00 0.00 59 1011.9
20260506101553 41 360 0.0 0.0 0.00 0.00 0.00 62 1011.1
20260506101517 58 264 0.0 0.0 0.00 0.00 0.00 48 1011.5
20260506100045 40 360 0.0 0.0 0.00 0.00 0.00 64 1011.0
20260506100017 59 264 0.0 0.0 0.00 0.00 0.00 47 1011.6
20260506094552 39 360 0.0 0.0 0.00 0.00 0.00 64 1011.1
20260506094514 59 264 0.0 0.0 0.00 0.00 0.00 47 1011.6
20260506093042 39 360 0.0 0.0 0.00 0.00 0.00 65 1010.9
20260506093014 59 261 0.0 0.0 0.00 0.00 0.00 46 1011.5
20260506091537 39 360 0.0 0.0 0.00 0.00 0.00 64 1010.4
20260506091512 59 265 0.0 0.0 0.00 0.00 0.00 45 1011.6
20260506090036 40 360 0.0 0.0 0.00 0.00 0.00 62 1010.5
20260506090009 59 266 0.0 0.0 0.00 0.00 0.00 45 1011.7
20260506084533 40 360 0.0 0.0 0.00 0.00 0.00 62 1010.3
20260506084508 60 238 0.0 0.0 0.00 0.00 0.00 44 1011.9
20260506083029 40 360 0.0 0.0 0.00 0.00 0.00 62 1010.1
20260506083014 60 254 0.0 0.0 0.00 0.00 0.00 44 1011.9
20260506081528 40 360 0.0 0.0 0.00 0.00 0.00 62 1010.0
20260506081509 60 201 0.0 0.0 0.00 0.00 0.00 43 1011.9
20260506073100 61 201 0.0 0.0 0.00 0.00 0.00 41 1011.8
20260506073019 42 360 0.0 0.0 0.00 0.00 0.00 58 1009.7
20260506071620 61 244 0.0 0.0 0.00 0.00 0.00 40 1011.7
20260506071517 43 360 0.0 0.0 0.00 0.00 0.00 56 1009.6
20260506061556 47 360 0.0 0.0 0.00 0.00 0.00 50 1008.8
20260506061552 62 244 0.0 0.0 0.00 0.00 0.00 40 1011.5
20260506044551 51 360 0.0 0.0 0.00 0.00 0.00 45 1008.3
20260506043049 66 288 0.0 0.0 0.00 0.00 0.00 37 1010.5
20260506043045 52 360 0.0 0.0 0.00 0.00 0.00 42 1008.1
20260506041556 53 360 0.0 0.0 0.00 0.00 0.00 42 1007.9
20260506041545 66 289 0.0 0.0 0.00 0.00 0.00 36 1010.3
20260506040048 67 294 0.0 0.0 0.00 0.00 0.00 35 1010.0
20260506040014 53 360 0.0 0.0 0.00 0.00 0.00 41 1008.0
20260506034642 53 360 0.0 0.0 0.00 0.00 0.00 41 1007.7
20260506034539 68 268 0.0 0.0 0.00 0.00 0.00 34 1009.9
20260506033110 54 360 0.0 0.0 0.00 0.00 0.00 41 1007.5
20260506033038 68 277 0.0 0.0 0.00 0.00 0.00 33 1009.6
20260506031540 69 314 0.0 0.0 0.00 0.00 0.00 32 1009.4
20260506031530 54 360 0.0 0.0 0.00 0.00 0.00 39 1007.3
20260506030055 55 360 0.0 0.0 0.00 0.00 0.00 37 1007.2
20260506030037 70 294 0.0 0.0 0.00 0.00 0.00 31 1009.2
20260506024552 55 360 0.0 0.0 0.00 0.00 0.00 37 1007.1
20260506024543 70 277 0.0 0.0 0.00 0.00 0.00 31 1008.8